Location: Unspecified
(47.4992°N, 121.7766°W)
Time: 14:10:47
(UTC-07:00)

Resurs 1-4 Rocket - Visible Passes

Search period start: 18 June 2018 00:00
Search period end: 28 June 2018 00:00
Orbit: 800 x 813 km, 98.5° (Epoch: 17 June)

Date Brightness Start Highest point End Pass type
(mag) Time Alt. Az. Time Alt. Az. Time Alt. Az.
18 Jun 4.1 01:56:49 10° NE 02:00:29 19° E 02:04:08 10° SE visible
18 Jun 2.2 03:35:31 10° N 03:40:50 69° WNW 03:45:26 14° SSW visible
19 Jun 4.5 01:34:01 10° ENE 01:35:32 11° E 01:37:03 10° ESE visible
19 Jun 2.2 03:10:54 10° NNE 03:16:16 77° ESE 03:20:33 16° S visible
20 Jun 2.8 02:46:27 10° NNE 02:51:37 48° E 02:55:40 16° S visible
20 Jun 3.4 04:26:43 10° N 04:31:12 28° WNW 04:35:40 10° WSW visible
21 Jun 3.5 02:22:11 10° NNE 02:26:52 30° E 02:30:46 13° SSE visible
21 Jun 2.8 04:01:49 10° N 04:06:50 43° WNW 04:11:48 10° SW visible
22 Jun 4.1 01:58:17 10° NE 02:02:02 19° E 02:05:46 10° SE visible
22 Jun 2.2 03:37:03 10° N 03:42:21 67° WNW 03:46:57 14° SSW visible
23 Jun 4.5 01:35:19 10° ENE 01:37:06 12° E 01:38:52 10° ESE visible
23 Jun 2.2 03:12:26 10° NNE 03:17:48 79° ESE 03:22:04 16° S visible
24 Jun 2.8 02:47:57 10° NNE 02:53:09 50° E 02:57:10 16° S visible
24 Jun 3.4 04:28:18 10° N 04:32:43 27° WNW 04:37:08 10° WSW visible
25 Jun 3.5 02:23:41 10° NNE 02:28:25 31° E 02:32:16 14° SSE visible
25 Jun 2.8 04:03:21 10° N 04:08:21 41° WNW 04:13:18 10° SW visible
26 Jun 4.1 01:59:44 10° NE 02:03:35 20° E 02:07:22 10° SE visible
26 Jun 2.3 03:38:35 10° N 03:43:53 65° WNW 03:48:27 14° SSW visible
27 Jun 4.5 01:36:39 10° ENE 01:38:39 12° E 01:40:39 10° ESE visible
27 Jun 2.2 03:13:57 10° NNE 03:19:19 82° ESE 03:23:33 17° SSW visible
